SCP
-0 0 0 0 0 0 0 0 0 0 0 0 0 0 0 0 0 1 2 3 4 7 9 10 10 12 14 15 16 17 17 15 13 11 9 8 7 7 8 9 12 14 16 16
0 0 0 0 0 0 0 0 0 0 0 0 0 0 0 0 1 1 2 3 4 7 9 9 10 11 13 13 14 15 15 13 11 9 8 8 7 7 8 10 12 15 16 17
0 0 0 0 0 0 0 0 0 0 0 0 0 0 0 0 1 2 3 3 4 6 8 9 9 10 12 13 12 12 12 11 9 8 8 8 8 8 8 10 12 14 15 15
0 0 0 0 0 0 0 0 0 0 0 0 0 0 0 1 2 2 3 4 4 6 7 7 7 7 9 11 10 10 9 8 8 8 8 8 8 8 9 9 10 11 12 12
0 0 0 0 0 0 0 0 0 0 0 0 0 0 0 1 2 2 3 3 4 5 5 4 3 4 5 6 6 6 6 6 7 7 8 8 9 9 8 9 9 9 10 10
0 0 0 0 0 0 0 0 0 0 0 0 0 0 0 1 1 2 2 2 2 2 2 2 2 1 1 2 2 3 4 4 5 6 6 7 8 8 8 8 9 9 9 10
0 0 0 0 0 0 0 0 0 0 0 0 0 0 0 1 1 1 1 1 1 0 1 1 1 1 1 1 1 2 2 3 3 4 5 5 6 7 7 7 8 8 9 9
0 0 0 0 0 0 0 0 0 0 0 0 0 0 0 1 1 1 1 1 0 0 0 0 1 1 1 1 1 2 2 3 3 3 4 4 5 5 6 6 6 7 7 7
0 0 0 0 0 0 0 0 0 0 0 0 0 0 1 1 1 1 0 0 0 0 0 0 1 1 1 1 2 2 3 3 3 3 3 4 4 4 5 5 5 6 6 6
0 0 0 0 0 0 0 0 0 0 0 0 0 0 0 1 1 0 0 0 0 0 0 0 1 1 1 2 2 2 3 3 3 3 3 3 3 4 4 4 4 4 5 4
0 0 0 0 0 0 0 0 0 0 0 0 0 0 0 0 1 0 0 0 0 0 0 0 1 1 1 2 2 2 3 3 3 3 3 3 3 3 3 3 3 3 3 4
0 0 0 0 0 0 0 0 0 0 0 0 0 0 0 0 0 0 0 0 0 0 0 1 1 1 1 2 2 2 2 2 3 3 3 2 2 2 2 2 2 2 2 2
0 0 0 0 0 0 0 0 0 0 0 0 0 0 0 0 0 0 0 0 0 1 1 1 1 1 2 2 2 2 2 2 2 2 2 1 1 1 1 1 1 1 1 1
0 0 0 0 0 0 0 0 0 0 0 0 0 0 0 0 1 1 1 1 1 1 1 1 1 1 2 2 2 2 2 2 2 1 1 1 1 1 0 0 0 0 0 0
0 0 0 0 0 0 0 0 0 0 0 0 0 0 0 1 1 1 1 1 1 1 1 1 1 1 1 2 2 2 2 2 2 1 1 1 1 1 0 0 0 0 0 0
0 0 0 0 0 0 0 0 0 0 0 0 0 0 0 1 1 1 1 1 1 1 1 1 1 1 1 2 2 2 2 2 2 1 1 1 1 0 0 0 0 0 0 0
0 0 0 0 0 0 0 0 0 0 0 0 0 1 1 1 1 1 1 1 1 1 1 1 1 1 2 2 2 2 2 2 2 1 1 1 1 0 0 0 0 0 0 0
0 0 0 0 0 0 0 0 0 0 0 1 1 1 1 1 1 1 1 1 1 1 1 1 1 2 2 2 3 3 2 2 2 1 1 1 1 0 0 0 0 0 0 0
0 0 0 0 0 0 0 0 0 0 1 1 2 2 1 1 1 1 1 1 1 1 1 1 1 2 2 3 3 3 2 2 1 1 1 1 1 0 0 0 0 0 0 0
0 0 0 0 0 0 0 0 0 1 1 2 2 1 1 1 1 1 1 1 1 1 1 1 1 2 3 3 4 4 3 2 1 1 1 1 1 0 0 0 0 0 0 0
1 1 1 1 1 1 1 1 1 1 1 1 1 1 1 1 1 1 1 1 1 1 1 1 1 2 3 4 4 4 3 2 1 1 1 1 1 0 0 0 0 0 0 0
1 1 1 1 1 1 1 1 1 1 1 1 1 0 0 0 0 0 0 1 1 1 1 1 1 2 2 3 4 4 3 2 1 1 1 1 1 0 0 0 0 0 0 0
1 1 1 1 1 0 0 0 0 0 0 0 0 0 0 0 0 0 0 0 0 1 1 1 1 1 2 3 4 4 3 2 2 1 1 1 1 1 0 1 0 0 0 0
1 1 1 1 1 0 0 0 0 0 0 0 0 0 0 0 0 0 0 0 0 0 1 1 1 1 1 2 3 3 3 2 2 1 1 1 1 1 1 1 0 0 0 0
0 0 1 0 0 0 0 0 0 0 0 0 0 0 0 0 0 0 0 0 0 0 0 1 1 1 1 1 1 2 2 2 2 1 1 1 1 1 1 1 0 0 0 0
0 0 0 0 0 0 0 0 0 0 0 0 0 0 0 0 0 0 0 0 0 0 0 0 0 1 0 1 1 1 2 2 2 1 1 1 1 1 1 1 0 0 0 0
Wind_Speed
9 11 10 4 6 11 11 13 13 11 7 6 9 13 15 11 4 4 2 4 4 5 7 7 4 4 4 2 2 3 4 3 3 4 5 6 7 5 5 5 6 6 5 5
7 10 3 7 7 8 9 9 11 11 6 6 10 14 14 14 10 6 1 0 2 5 7 7 6 7 8 7 6 3 2 3 4 5 5 5 5 5 6 6 5 5 6 5
9 4 4 5 6 9 10 9 10 12 13 14 17 19 18 17 13 8 7 4 3 5 6 6 6 7 7 7 6 6 5 4 4 5 4 5 4 5 6 6 4 4 4 4
8 2 2 8 9 7 9 11 11 12 13 14 17 16 15 11 8 9 8 7 7 6 5 5 4 3 3 4 4 4 4 4 4 5 4 6 6 7 8 6 5 5 5 5
6 3 5 9 9 7 9 12 12 15 15 17 17 16 13 6 4 9 10 7 6 4 3 2 1 1 2 4 3 2 2 3 4 5 5 5 6 6 6 6 6 6 6 7
8 4 6 8 6 5 7 11 15 17 14 15 9 11 9 5 10 14 11 7 5 4 2 2 1 1 2 4 3 3 2 3 3 4 5 5 7 7 8 7 6 6 5 6
7 7 4 3 7 4 6 8 9 9 6 3 2 6 7 5 11 12 10 7 4 1 2 2 2 3 3 4 4 3 3 3 3 4 5 5 6 7 8 8 7 6 5 5
5 5 4 3 5 4 6 8 7 9 11 12 12 9 2 10 9 7 4 2 3 4 4 3 4 3 3 5 4 4 4 3 4 4 5 5 7 7 6 6 6 6 5 5
5 5 5 6 5 7 7 7 9 8 13 14 10 8 8 8 4 2 4 5 5 5 4 5 6 5 5 5 5 5 5 4 4 5 6 6 6 7 7 7 6 5 4 4
7 9 10 6 7 8 9 9 7 7 9 11 12 10 4 1 4 4 4 6 7 6 7 6 5 4 4 4 5 5 4 4 4 5 5 6 7 7 5 4 4 4 3 3
9 10 12 9 10 11 8 8 8 8 9 11 13 11 10 8 5 4 7 9 9 9 9 6 5 4 5 5 5 5 4 4 4 4 4 5 6 6 4 4 4 4 4 4
10 9 10 13 14 12 8 8 9 8 10 11 13 13 8 5 5 6 8 8 9 9 9 7 6 5 5 5 5 5 4 4 3 3 3 4 4 4 4 4 5 6 6 5
8 7 10 11 6 5 7 9 10 10 10 11 14 12 7 8 10 9 8 7 7 7 7 5 4 3 4 5 5 5 4 3 2 1 2 2 3 4 5 5 5 6 6 6
3 8 12 14 14 14 14 15 15 14 12 14 16 18 15 14 12 10 9 8 8 7 6 5 3 2 2 3 4 5 4 2 2 1 1 1 2 3 4 4 5 5 5 5
4 8 11 15 17 19 19 19 17 16 15 16 16 16 14 13 13 12 12 12 12 10 8 6 3 2 2 3 4 4 4 3 2 2 2 2 3 3 3 3 3 3 3 3
5 9 13 16 18 19 19 17 15 13 11 12 13 14 14 14 14 14 15 15 15 12 9 7 5 3 3 4 5 5 4 4 4 4 3 4 5 5 4 3 2 1 1 1
10 11 14 15 17 18 15 12 8 6 9 12 13 13 14 14 15 15 15 15 15 12 10 9 7 4 3 4 4 5 4 4 5 5 4 5 7 7 6 5 3 2 1 1
8 8 8 13 15 16 10 8 8 6 9 14 13 14 16 16 15 14 13 14 15 14 13 10 8 6 4 5 5 5 6 5 6 5 5 5 8 8 8 6 4 3 2 2
4 4 7 10 13 14 10 11 9 7 7 17 16 16 18 18 17 13 17 19 17 15 13 10 9 8 5 5 6 6 7 6 7 7 6 7 8 9 9 8 6 4 3 3
7 7 8 11 14 14 10 13 11 8 1 17 17 17 18 18 14 13 19 20 20 18 15 13 12 9 6 6 6 7 8 7 7 7 6 7 8 9 10 9 7 5 4 4
7 8 11 12 13 5 13 15 13 7 9 18 18 18 18 16 14 17 20 19 19 19 18 16 13 10 7 6 7 8 9 8 7 6 6 6 8 9 10 9 7 7 6 6
10 10 9 9 10 4 18 12 10 8 12 15 17 18 18 18 20 21 21 21 21 20 20 19 15 12 10 7 8 10 10 8 6 6 6 7 8 9 10 10 9 8 8 7
6 7 4 6 6 7 12 10 8 9 10 12 13 15 16 18 18 20 20 20 20 20 19 17 17 16 13 11 9 12 10 8 7 6 6 7 9 8 8 11 11 9 8 8
9 12 6 5 8 6 8 9 8 8 9 11 12 13 14 15 17 17 17 17 18 18 17 16 17 17 15 14 13 12 9 8 8 8 7 7 8 8 9 8 9 9 10 9
8 9 7 5 7 8 7 11 12 12 13 15 15 15 16 17 17 17 15 14 15 16 16 16 15 16 16 15 16 14 10 9 10 9 8 9 9 9 9 9 6 8 7 7
6 7 6 5 5 7 11 12 15 16 17 18 20 20 19 19 19 19 16 14 13 15 15 16 17 16 16 15 14 15 11 10 10 9 9 9 9 8 8 8 7 7 4 7
Wind_Direction
217 237 256 304 346 335 324 316 320 316 336 337 303 292 291 295 284 274 324 9 31 34 54 46 22 16 31 68 154 198 217 234 241 233 229 230 237 245 248 236 229 222 217 204
230 246 312 2 333 303 286 288 287 284 295 292 285 281 280 279 265 248 219 355 15 59 67 55 25 19 20 24 12 0 356 297 272 258 256 256 258 258 251 249 235 217 211 207
275 54 29 285 267 272 279 285 301 321 329 311 293 279 267 252 232 195 178 167 125 90 78 70 49 31 20 12 4 8 10 351 324 299 280 275 271 264 263 259 250 235 228 220
282 274 288 288 280 287 296 329 337 315 299 290 290 292 289 276 204 169 147 121 107 92 83 68 56 36 5 353 353 359 359 354 342 329 307 286 268 262 261 261 257 247 237 237
280 291 277 272 284 311 310 319 304 286 278 275 273 273 279 296 117 112 106 109 104 110 104 88 359 338 320 310 310 311 348 345 336 326 311 299 289 280 278 272 260 246 235 227
288 286 271 287 304 297 297 290 281 266 258 265 307 322 310 48 102 122 132 142 164 168 168 173 282 302 289 291 291 300 317 313 311 308 307 300 298 296 292 282 269 254 240 227
290 283 255 250 277 285 287 300 302 311 291 278 308 279 281 122 116 133 150 167 185 193 277 282 303 299 286 283 287 291 291 289 298 303 304 307 304 296 284 280 272 263 254 237
302 309 291 276 301 309 286 288 304 324 321 321 305 285 8 102 101 109 125 186 258 274 282 296 293 283 292 310 320 315 315 309 310 311 312 309 301 293 287 283 277 270 261 255
303 300 259 260 293 300 293 292 320 308 291 291 298 328 78 82 81 141 211 235 256 280 307 311 315 333 334 335 336 328 323 322 322 325 323 308 306 303 299 296 292 286 276 264
289 297 294 252 229 245 250 279 291 292 301 305 305 319 60 108 235 232 279 314 315 318 312 317 341 346 343 340 326 319 321 322 332 332 329 327 334 328 323 318 316 315 312 307
306 294 290 281 258 273 265 267 304 312 303 301 303 308 326 340 2 348 327 325 327 324 321 333 340 348 346 339 328 329 328 327 337 340 349 347 341 345 0 10 13 20 24 25
313 308 305 297 289 292 290 295 292 282 287 292 291 294 314 39 355 324 323 334 339 335 328 332 339 346 342 332 326 326 321 325 347 358 1 4 6 15 24 36 40 40 36 30
350 329 303 293 294 265 278 275 267 263 263 268 275 283 293 308 313 323 326 333 334 325 325 325 321 320 318 317 321 317 313 321 331 359 10 22 35 41 42 46 45 42 33 25
280 276 280 290 301 306 292 284 284 283 279 282 285 296 308 316 321 329 337 337 323 313 310 303 290 280 294 304 297 293 292 288 277 209 205 107 76 72 69 59 46 41 32 19
246 278 287 292 297 297 292 289 288 285 284 287 297 306 328 354 357 358 353 340 327 317 306 302 306 293 263 274 269 261 260 245 248 245 222 168 152 128 107 82 58 39 31 24
284 284 290 288 290 292 290 287 285 286 294 311 323 330 3 8 6 1 352 338 325 316 314 320 324 305 260 251 261 255 238 227 228 238 232 179 170 160 149 137 117 68 9 11
288 296 297 292 298 299 292 301 299 308 337 346 339 349 5 4 1 353 339 333 336 340 343 338 326 301 256 237 240 249 244 225 222 228 230 192 181 175 172 175 174 186 189 174
254 286 287 284 290 284 292 343 346 341 16 11 1 4 4 355 346 332 340 360 350 341 334 326 314 297 263 230 219 226 238 233 224 225 226 202 188 185 179 183 182 181 169 165
167 250 280 285 287 291 322 30 18 353 33 27 9 2 355 347 334 333 355 347 335 328 318 304 295 284 256 229 220 223 230 236 234 226 216 203 190 185 180 182 181 179 174 175
174 202 249 273 287 296 1 9 353 314 343 20 3 358 352 350 339 334 340 334 331 329 324 318 310 296 266 225 210 219 230 232 235 233 214 196 185 183 183 181 180 175 177 179
222 225 242 259 266 273 22 7 355 339 354 358 357 355 353 348 333 328 331 332 330 327 326 324 317 308 284 240 210 216 228 231 232 226 203 189 183 183 182 178 177 176 183 183
292 287 286 293 290 355 15 34 39 1 351 356 355 352 346 338 332 331 331 330 328 328 329 330 328 322 303 263 224 216 220 223 225 218 201 188 183 188 182 177 181 185 183 177
355 352 346 27 66 76 46 54 32 8 358 351 343 338 335 331 328 327 327 326 324 326 328 329 327 323 319 299 248 225 215 210 218 212 200 188 188 193 174 175 180 182 182 181
27 2 358 77 83 78 61 32 11 354 334 322 318 315 315 312 311 312 314 316 317 319 322 324 324 324 322 320 296 245 215 203 211 209 198 186 188 184 174 176 179 182 183 186
8 3 358 31 13 347 358 350 335 324 316 310 306 302 299 296 296 297 298 302 307 310 313 316 318 319 321 323 319 285 231 205 208 205 197 190 189 186 177 179 180 192 188 190
30 22 9 358 351 315 309 312 311 306 303 301 300 299 299 299 300 301 300 301 302 305 310 312 312 315 318 319 317 309 268 221 208 204 198 194 190 183 179 171 146 57 100 135